Santa Ynez, CA

4:19 PM PST on January 19, 2018 (GMT -0800)
Santa Ynez

Weather History for KIZA - August, 2013

Change the Weather History Date:

Saturday, August 24, 2013

  Actual Average (KSBA) Record (KSBA)
Temperature  
Mean Temperature 72 °F -  
Max Temperature 91 °F 75 °F 86 °F (1997)
Min Temperature 53 °F 57 °F 48 °F (1944)
Cooling Degree Days 7    
Growing Degree Days 22 (Base 50)    
Moisture  
Dew Point 51 °F    
Average Humidity 67    
Maximum Humidity 94    
Minimum Humidity 16    
Precipitation  
Precipitation 0.00 in - - ()
Sea Level Pressure  
Sea Level Pressure 29.85 in    
Wind  
Wind Speed 4 mph (West)    
Max Wind Speed 17 mph    
Max Gust Speed 17 mph    
Visibility 9 miles    
Events      
Averages and records for this station are not official NWS values.
T = Trace of Precipitation, MM = Missing Value Source: NWS Daily Summary

Daily Weather History Graph

Daily Weather History Graph

Search for Another Location

Airport or City:

Trip Planner

Search our weather history database for the weather conditions in past years. The results will help you decide how hot, cold, wet, or windy it might be!

Date:

Astronomy

Aug. 24, 2013 Rise Set
Actual Time 6:27 AM PDT 7:36 PM PDT
Civil Twilight 6:01 AM PDT 8:02 PM PDT
Nautical Twilight 5:30 AM PDT 8:33 PM PDT
Astronomical Twilight 4:58 AM PDT 9:05 PM PDT
Moon 9:47 PM PDT (8/24) 10:20 AM PDT (8/24)
Length of Visible Light 14h 01m
Length of Day
13h 08m
Waning Gibbous, 83% of the Moon is Illuminated
Aug 24
Waning Gibbous
Aug 28
Last Quarter
Sep 5
New
Sep 12
First Quarter
Sep 19
Full

Hourly Weather History & Observations

Time (PDT) Temp. Dew Point Humidity Pressure Visibility Wind Dir Wind Speed Gust Speed Precip Events Conditions
12:15 AM 53.6 °F 51.8 °F 94% 29.85 in 10.0 mi SW 4.6 mph - N/A   Clear
12:35 AM 53.6 °F 51.8 °F 94% 29.85 in 10.0 mi WSW 3.5 mph - N/A   Clear
12:55 AM 53.6 °F 51.8 °F 94% 29.85 in 10.0 mi WSW 3.5 mph - N/A   Mostly Cloudy
1:15 AM 55.4 °F 51.8 °F 88% 29.85 in 10.0 mi WSW 3.5 mph - N/A   Overcast
1:35 AM 55.4 °F 53.6 °F 94% 29.85 in 7.0 mi Calm Calm - N/A   Overcast
1:55 AM 55.4 °F 53.6 °F 94% 29.85 in 7.0 mi Calm Calm - N/A   Overcast
2:15 AM 55.4 °F 53.6 °F 94% 29.85 in 10.0 mi Calm Calm - N/A   Overcast
2:35 AM 55.4 °F 51.8 °F 88% 29.85 in 10.0 mi Calm Calm - N/A   Overcast
2:55 AM 55.4 °F 51.8 °F 88% 29.85 in 10.0 mi North 3.5 mph - N/A   Overcast
3:15 AM 55.4 °F 51.8 °F 88% 29.85 in 7.0 mi NNW 3.5 mph - N/A   Overcast
3:35 AM 55.4 °F 51.8 °F 88% 29.85 in 7.0 mi NNW 3.5 mph - N/A   Overcast
3:55 AM 55.4 °F 51.8 °F 88% 29.85 in 7.0 mi Calm Calm - N/A   Overcast
4:15 AM 53.6 °F 51.8 °F 94% 29.85 in 7.0 mi Calm Calm - N/A   Overcast
4:35 AM 53.6 °F 51.8 °F 94% 29.85 in 5.0 mi Calm Calm - N/A   Overcast
4:55 AM 53.6 °F 51.8 °F 94% 29.85 in 4.0 mi Calm Calm - N/A   Overcast
5:15 AM 53.6 °F 51.8 °F 94% 29.85 in 4.0 mi North 3.5 mph - N/A   Overcast
5:35 AM 53.6 °F 51.8 °F 94% 29.85 in 5.0 mi Calm Calm - N/A   Overcast
5:55 AM 53.6 °F 51.8 °F 94% 29.86 in 3.0 mi Calm Calm - N/A   Overcast
6:15 AM 53.6 °F 51.8 °F 94% 29.86 in 5.0 mi Calm Calm - N/A   Overcast
6:35 AM 53.6 °F 51.8 °F 94% 29.86 in 5.0 mi Calm Calm - N/A   Overcast
6:55 AM 53.6 °F 51.8 °F 94% 29.86 in 2.0 mi Calm Calm - N/A   Overcast
7:15 AM 53.6 °F 51.8 °F 94% 29.86 in 3.0 mi Calm Calm - N/A   Overcast
7:35 AM 53.6 °F 51.8 °F 94% 29.86 in 4.0 mi ESE 3.5 mph - N/A   Overcast
7:55 AM 55.4 °F 51.8 °F 88% 29.86 in 5.0 mi ESE 3.5 mph - N/A   Overcast
8:15 AM 55.4 °F 51.8 °F 88% 29.86 in 5.0 mi Calm Calm - N/A   Overcast
8:35 AM 55.4 °F 51.8 °F 88% 29.86 in 7.0 mi Calm Calm - N/A   Overcast
8:55 AM 55.4 °F 51.8 °F 88% 29.86 in 7.0 mi Calm Calm - N/A   Overcast
9:15 AM 59.0 °F 53.6 °F 82% 29.86 in 10.0 mi Calm Calm - N/A   Scattered Clouds
9:35 AM 62.6 °F 53.6 °F 72% 29.86 in 10.0 mi Calm Calm - N/A   Clear
9:55 AM 64.4 °F 51.8 °F 64% 29.86 in 10.0 mi Calm Calm - N/A   Clear
10:15 AM 68.0 °F 51.8 °F 56% 29.87 in 10.0 mi Calm Calm - N/A   Clear
10:35 AM 71.6 °F 51.8 °F 50% 29.86 in 10.0 mi West 4.6 mph - N/A   Clear
10:55 AM 73.4 °F 51.8 °F 47% 29.87 in 10.0 mi Calm Calm - N/A   Clear
11:15 AM 77.0 °F 50.0 °F 39% 29.86 in 10.0 mi WNW 5.8 mph - N/A   Clear
11:35 AM 80.6 °F 48.2 °F 32% 29.86 in 10.0 mi West 8.1 mph - N/A   Clear
11:55 AM 82.4 °F 50.0 °F 32% 29.85 in 10.0 mi West 6.9 mph - N/A   Clear
12:15 PM 84.2 °F 48.2 °F 29% 29.85 in 10.0 mi West 6.9 mph - N/A   Clear
12:35 PM 86.0 °F 46.4 °F 25% 29.84 in 10.0 mi West 9.2 mph - N/A   Clear
12:55 PM 87.8 °F 44.6 °F 22% 29.83 in 10.0 mi West 6.9 mph - N/A   Clear
1:15 PM 89.6 °F 44.6 °F 21% 29.83 in 10.0 mi West 3.5 mph - N/A   Clear
1:35 PM 89.6 °F 44.6 °F 21% 29.82 in 10.0 mi West 9.2 mph - N/A   Clear
1:55 PM 89.6 °F 37.4 °F 16% 29.81 in 10.0 mi West 6.9 mph - N/A   Clear
2:15 PM 91.4 °F 44.6 °F 20% 29.81 in 10.0 mi WNW 6.9 mph 16.1 mph N/A   Clear
2:35 PM 91.4 °F 44.6 °F 20% 29.80 in 10.0 mi West 17.3 mph - N/A   Clear
2:55 PM 89.6 °F 48.2 °F 24% 29.80 in 10.0 mi WNW 13.8 mph - N/A   Clear
3:15 PM 89.6 °F 48.2 °F 24% 29.79 in 10.0 mi WNW 12.7 mph - N/A   Clear
3:35 PM 87.8 °F 51.8 °F 29% 29.79 in 10.0 mi WNW 17.3 mph - N/A   Clear
3:55 PM 84.2 °F 50.0 °F 30% 29.79 in 10.0 mi WNW 16.1 mph - N/A   Clear
4:15 PM 82.4 °F 50.0 °F 32% 29.79 in 10.0 mi WNW 16.1 mph - N/A   Clear
4:35 PM 80.6 °F 50.0 °F 34% 29.81 in 10.0 mi WNW 16.1 mph - N/A   Clear
4:55 PM 78.8 °F 51.8 °F 39% 29.81 in 10.0 mi West 12.7 mph - N/A   Clear
5:15 PM 78.8 °F 51.8 °F 39% 29.81 in 10.0 mi West 10.4 mph - N/A   Clear
5:35 PM 77.0 °F 51.8 °F 41% 29.82 in 10.0 mi West 11.5 mph - N/A   Clear
5:55 PM 77.0 °F 51.8 °F 41% 29.82 in 10.0 mi West 10.4 mph - N/A   Clear
6:15 PM 75.2 °F 51.8 °F 44% 29.82 in 10.0 mi West 10.4 mph - N/A   Clear
6:35 PM 73.4 °F 53.6 °F 50% 29.82 in 10.0 mi West 12.7 mph - N/A   Clear
6:55 PM 69.8 °F 53.6 °F 56% 29.83 in 10.0 mi West 12.7 mph - N/A   Clear
7:15 PM 68.0 °F 53.6 °F 60% 29.84 in 10.0 mi West 12.7 mph 17.3 mph N/A   Clear
7:35 PM 64.4 °F 53.6 °F 68% 29.85 in 10.0 mi West 9.2 mph - N/A   Clear
7:55 PM 62.6 °F 53.6 °F 72% 29.86 in 10.0 mi West 5.8 mph - N/A   Clear
8:15 PM 62.6 °F 53.6 °F 72% 29.86 in 10.0 mi WSW 5.8 mph - N/A   Clear
8:35 PM 62.6 °F 53.6 °F 72% 29.87 in 10.0 mi WSW 5.8 mph - N/A   Clear
8:55 PM 60.8 °F 53.6 °F 77% 29.89 in 10.0 mi West 4.6 mph - N/A   Clear
9:15 PM 60.8 °F 53.6 °F 77% 29.90 in 10.0 mi WSW 4.6 mph - N/A   Clear
9:35 PM 60.8 °F 53.6 °F 77% 29.90 in 10.0 mi WSW 3.5 mph - N/A   Clear
9:55 PM 59.0 °F 53.6 °F 82% 29.90 in 10.0 mi WSW 4.6 mph - N/A   Clear
10:15 PM 59.0 °F 53.6 °F 82% 29.90 in 10.0 mi SW 3.5 mph - N/A   Clear
10:35 PM 59.0 °F 53.6 °F 82% 29.90 in 10.0 mi SW 3.5 mph - N/A   Clear
10:55 PM 57.2 °F 53.6 °F 88% 29.90 in 10.0 mi Calm Calm - N/A   Clear
11:15 PM 55.4 °F 51.8 °F 88% 29.90 in 10.0 mi Calm Calm - N/A   Clear
11:35 PM 55.4 °F 53.6 °F 94% 29.90 in 10.0 mi SW 3.5 mph - N/A   Clear
11:55 PM 55.4 °F 53.6 °F 94% 29.90 in 10.0 mi WSW 3.5 mph - N/A   Clear